Weather History for KCDC - May, 2014

Change the Weather History Date:

Sunday, May 18, 2014

  Actual Average Record
Temperature  
Mean Temperature 68 °F 56 °F  
Max Temperature 81 °F 73 °F 91 °F (2009)
Min Temperature 54 °F 40 °F 29 °F (1971)
Degree Days  
Heating Degree Days 0 9  
Month to date heating degree days 202 202  
Since 1 July heating degree days 6023 6088  
Cooling Degree Days 3 0  
Month to date cooling degree days 6 0  
Year to date cooling degree days 6 0  
Growing Degree Days 17 (Base 50)    
Moisture  
Dew Point 18 °F    
Average Humidity 19    
Maximum Humidity 28    
Minimum Humidity 9    
Precipitation  
Precipitation 0.00 in 0.02 in 1.18 in (2011)
Month to date precipitation 1.38 0.43  
Year to date precipitation 3.43 4.70  
Sea Level Pressure  
Sea Level Pressure 29.61 in    
Wind  
Wind Speed 17 mph (SSW)    
Max Wind Speed 28 mph    
Max Gust Speed 39 mph    
Visibility 10 miles    
Events      
T = Trace of Precipitation, MM = Missing Value Source: NWS Daily Summary

Daily Weather History Graph

Daily Weather History Graph

Search for Another Location

Airport or City:

Trip Planner

Search our weather history database for the weather conditions in past years. The results will help you decide how hot, cold, wet, or windy it might be!

Date:

Astronomy

May. 18, 2014 Rise Set
Actual Time 6:20 AM MDT 8:37 PM MDT
Civil Twilight 5:50 AM MDT 9:07 PM MDT
Nautical Twilight 5:14 AM MDT 9:44 PM MDT
Astronomical Twilight 4:34 AM MDT 10:24 PM MDT
Moon No Moon Rise 10:12 AM MDT (5/18)
Length of Visible Light 15h 16m
Length of Day
14h 17m
Waning Gibbous, 80% of the Moon is Illuminated
May 18
Waning Gibbous
May 21
Last Quarter
May 28
New
Jun 5
First Quarter
Jun 12
Full

Hourly Weather History & Observations

Time (MDT) Temp. Dew Point Humidity Pressure Visibility Wind Dir Wind Speed Gust Speed Precip Events Conditions
12:53 AM 55.0 °F 26.1 °F 33% 29.70 in 10.0 mi SSW 5.8 mph - N/A   Clear
1:53 AM 68.0 °F 18.0 °F 15% 29.64 in 10.0 mi South 13.8 mph - N/A   Clear
2:53 AM 66.9 °F 17.1 °F 15% 29.63 in 10.0 mi South 11.5 mph - N/A   Clear
3:53 AM 64.0 °F 18.0 °F 17% 29.64 in 10.0 mi South 11.5 mph - N/A   Clear
4:53 AM 64.0 °F 19.0 °F 18% 29.62 in 10.0 mi South 13.8 mph - N/A   Clear
5:53 AM 63.0 °F 19.9 °F 19% 29.62 in 10.0 mi South 12.7 mph - N/A   Clear
6:53 AM 60.1 °F 21.9 °F 23% 29.64 in 10.0 mi SSW 10.4 mph - N/A   Clear
7:53 AM 63.0 °F 23.0 °F 22% 29.65 in 10.0 mi SSW 11.5 mph - N/A   Clear
8:53 AM 66.0 °F 25.0 °F 21% 29.65 in 10.0 mi SW 12.7 mph - N/A   Clear
9:53 AM 69.1 °F 23.0 °F 18% 29.65 in 10.0 mi SSW 23.0 mph 31.1 mph N/A   Clear
10:53 AM 72.0 °F 18.0 °F 13% 29.64 in 10.0 mi SW 23.0 mph 32.2 mph N/A   Clear
11:53 AM 73.0 °F 21.0 °F 14% 29.65 in 10.0 mi SW 17.3 mph 26.5 mph N/A   Clear
12:53 PM 75.9 °F 17.1 °F 11% 29.64 in 10.0 mi SW 23.0 mph 28.8 mph N/A   Clear
1:53 PM 77.0 °F 14.0 °F 9% 29.58 in 10.0 mi SSW 18.4 mph 33.4 mph N/A   Clear
2:53 PM 79.0 °F 14.0 °F 9% 29.57 in 10.0 mi SSW 23.0 mph 33.4 mph N/A   Clear
3:53 PM 79.0 °F 16.0 °F 9% 29.56 in 10.0 mi South 21.9 mph 33.4 mph N/A   Clear
4:53 PM 77.0 °F 15.1 °F 10% 29.55 in 10.0 mi SSW 15.0 mph 34.5 mph N/A   Clear
5:53 PM 78.1 °F 15.1 °F 9% 29.54 in 10.0 mi SSW 26.5 mph 34.5 mph N/A   Clear
6:53 PM 75.0 °F 14.0 °F 10% 29.56 in 10.0 mi SW 20.7 mph 31.1 mph N/A   Clear
7:53 PM 72.0 °F 10.9 °F 10% 29.56 in 10.0 mi SSW 24.2 mph 29.9 mph N/A   Clear
8:53 PM 66.0 °F 15.1 °F 14% 29.58 in 10.0 mi SW 13.8 mph - N/A   Clear
9:53 PM 62.1 °F 14.0 °F 15% 29.60 in 10.0 mi SSW 11.5 mph - N/A   Clear
10:53 PM 59.0 °F 15.1 °F 18% 29.61 in 10.0 mi South 10.4 mph - N/A   Clear
11:53 PM 61.0 °F 15.1 °F 17% 29.60 in 10.0 mi South 11.5 mph - N/A   Clear